Weather History for Fort Rucker / Ozark, AL

Change the Weather History Date:

Saturday, December 14, 2013

  Actual Average (KOZR) Record (KOZR)
Temperature  
Mean Temperature 60 °F -  
Max Temperature 70 °F 59 °F 75 °F (2011)
Min Temperature 50 °F 38 °F 20 °F (2010)
Degree Days  
Heating Degree Days 5    
Growing Degree Days 10 (Base 50)    
Moisture  
Dew Point 61 °F    
Average Humidity 93    
Maximum Humidity 100    
Minimum Humidity 83    
Precipitation  
Precipitation 0.98 in - - ()
Sea Level Pressure  
Sea Level Pressure 29.82 in    
Wind  
Wind Speed 5 mph (SSW)    
Max Wind Speed 18 mph    
Max Gust Speed 26 mph    
Visibility 6 miles    
Events Fog , Rain    
Averages and records for this station are not official NWS values.
T = Trace of Precipitation, MM = Missing Value Source: NWS Daily Summary

Daily Weather History Graph

Daily Weather History Graph

Search for Another Location

Airport:

Trip Planner

Search our weather history database for the weather conditions in past years. The results will help you decide how hot, cold, wet, or windy it might be!

Date:

Astronomy

Dec. 14, 2013 Rise Set
Actual Time 6:33 AM CST 4:41 PM CST
Civil Twilight 6:06 AM CST 5:08 PM CST
Nautical Twilight 5:36 AM CST 5:38 PM CST
Astronomical Twilight 5:06 AM CST 6:07 PM CST
Moon 2:56 PM CST (12/14) 4:00 AM CST (12/14)
Length of Visible Light 11h 01m
Length of Day
10h 07m
Waxing Gibbous, 94% of the Moon is Illuminated
Dec 14
Waxing Gibbous
Dec 17
Full
Dec 25
Last Quarter
Jan 1
New
Jan 7
First Quarter

Hourly Weather History & Observations

Time (CST) Temp. Dew Point Humidity Pressure Visibility Wind Dir Wind Speed Gust Speed Precip Events Conditions
12:53 AM 50.0 °F 45.0 °F 83% 30.04 in 10.0 mi East 3.5 mph - N/A   Clear
1:53 AM 51.1 °F 46.0 °F 83% 30.04 in 10.0 mi NNE 6.9 mph - N/A   Clear
2:53 AM 51.1 °F 46.9 °F 86% 30.01 in 10.0 mi East 5.8 mph - N/A   Mostly Cloudy
3:53 AM 53.1 °F 48.9 °F 86% 29.97 in 10.0 mi ESE 5.8 mph - N/A   Overcast
4:53 AM 55.0 °F 50.0 °F 83% 29.96 in 10.0 mi SE 5.8 mph - N/A   Overcast
5:53 AM 55.9 °F 52.0 °F 87% 29.95 in 10.0 mi SSE 6.9 mph - N/A   Overcast
6:53 AM 57.0 °F 53.1 °F 87% 29.94 in 10.0 mi SE 6.9 mph - N/A   Overcast
7:30 AM 57.2 °F 53.6 °F 88% 29.97 in 10.0 mi SSE 5.8 mph - N/A   Overcast
7:53 AM 59.0 °F 55.0 °F 87% 29.93 in 10.0 mi Variable 4.6 mph - N/A   Overcast
8:53 AM 62.1 °F 57.9 °F 86% 29.91 in 10.0 mi SSE 8.1 mph - N/A   Overcast
9:53 AM 64.0 °F 60.1 °F 87% 29.90 in 10.0 mi SSE 9.2 mph - N/A   Overcast
10:53 AM 64.9 °F 62.1 °F 90% 29.87 in 10.0 mi South 6.9 mph - 0.00 in   Overcast
11:53 AM 68.0 °F 64.0 °F 87% 29.82 in 9.0 mi South 8.1 mph - 0.00 in   Overcast
12:53 PM 70.0 °F 64.9 °F 84% 29.78 in 10.0 mi South 10.4 mph 20.7 mph 0.00 in   Overcast
1:02 PM 69.8 °F 64.4 °F 83% 29.86 in 1.0 mi WNW 18.4 mph 26.5 mph 0.21 in Rain Light Rain
1:09 PM 66.2 °F 64.4 °F 94% 29.84 in 0.2 mi WSW 8.1 mph 26.5 mph 0.47 in Fog , Rain Heavy Rain
1:17 PM 66.2 °F 64.4 °F 94% 29.84 in 0.2 mi SSW 6.9 mph - 0.68 in Fog , Rain Heavy Rain
1:43 PM 66.2 °F 64.4 °F 94% 29.83 in 2.0 mi SW 4.6 mph - 0.96 in Rain Light Rain
1:47 PM 66.2 °F 64.4 °F 94% 29.83 in 10.0 mi WSW 3.5 mph - 0.96 in   Mostly Cloudy
1:53 PM 66.9 °F 66.0 °F 97% 29.79 in 10.0 mi SW 3.5 mph - 0.96 in   Mostly Cloudy
2:39 PM 68.0 °F 66.2 °F 94% 29.84 in 10.0 mi Variable 3.5 mph - 0.00 in   Overcast
2:53 PM 68.0 °F 66.0 °F 93% 29.81 in 10.0 mi Calm Calm - 0.00 in   Mostly Cloudy
3:15 PM 68.0 °F 66.2 °F 94% 29.85 in 10.0 mi Calm Calm - N/A   Mostly Cloudy
3:24 PM 68.0 °F 66.2 °F 94% 29.85 in 10.0 mi Calm Calm - N/A   Scattered Clouds
3:53 PM 68.0 °F 66.0 °F 93% 29.52 in 10.0 mi Calm Calm - N/A   Scattered Clouds
4:19 PM 66.2 °F 66.2 °F 100% 29.85 in 0.8 mi Calm Calm - N/A   Partly Cloudy
4:33 PM 66.2 °F 66.2 °F 100% 29.85 in 1.0 mi Calm Calm - N/A   Mist
4:40 PM 66.2 °F 66.2 °F 100% 29.85 in 0.5 mi Calm Calm - N/A Fog Fog
4:45 PM 66.2 °F 66.2 °F 100% 29.85 in 2.0 mi Calm Calm - N/A   Partly Cloudy
4:53 PM 66.9 °F 66.0 °F 97% 29.52 in 1.5 mi Calm Calm - N/A   Scattered Clouds
4:59 PM 66.2 °F 64.4 °F 94% 29.85 in 0.8 mi Calm Calm - N/A   Mist
5:13 PM 66.2 °F 66.2 °F 100% 29.85 in 1.2 mi Calm Calm - N/A   Partly Cloudy
5:22 PM 66.2 °F 66.2 °F 100% 29.85 in 3.0 mi Calm Calm - N/A   Partly Cloudy
5:28 PM 66.2 °F 66.2 °F 100% 29.85 in 1.8 mi Calm Calm - N/A   Clear
5:31 PM 66.2 °F 64.4 °F 94% 29.85 in 0.8 mi Calm Calm - N/A   Mist
5:53 PM 64.9 °F 64.0 °F 97% 29.53 in 0.8 mi Calm Calm - N/A   Scattered Clouds
6:03 PM 66.2 °F 64.4 °F 94% 29.86 in 2.0 mi Calm Calm - N/A   Partly Cloudy
6:10 PM 66.2 °F 64.4 °F 94% 29.86 in 9.0 mi NW 3.5 mph - N/A   Partly Cloudy
6:15 PM 64.4 °F 64.4 °F 100% 29.86 in 1.8 mi NNW 5.8 mph - 0.00 in Rain Light Rain
6:24 PM 64.4 °F 64.4 °F 100% 29.86 in 3.0 mi NW 3.5 mph - 0.00 in Rain Light Rain
6:40 PM 66.2 °F 64.4 °F 94% 29.87 in 8.0 mi NNW 4.6 mph - 0.00 in   Mostly Cloudy
6:53 PM 66.0 °F 64.9 °F 96% 29.53 in 6.0 mi NNW 5.8 mph - 0.01 in Rain Light Rain
7:53 PM 64.0 °F 63.0 °F 96% 29.55 in 9.0 mi NNW 4.6 mph - 0.00 in   Mostly Cloudy
8:53 PM 63.0 °F 62.1 °F 97% 29.58 in 8.0 mi Variable 3.5 mph - 0.01 in Rain Light Rain
9:53 PM 62.1 °F 59.0 °F 90% 29.60 in 10.0 mi NNW 4.6 mph - 0.00 in   Overcast
10:53 PM 61.0 °F 55.9 °F 83% 29.58 in 10.0 mi Calm Calm - 0.00 in   Overcast
11:53 PM 59.0 °F 57.9 °F 96% 29.56 in 8.0 mi Calm Calm - 0.00 in Rain Light Rain